Location: Unspecified
(49.2170°N, 0.0000°E)
Time: 15:06:50
(UTC+00:00)

Transit 4A - Pass Details

Date: 18 June 2019
Orbit: 863 x 981 km, 66.8° (Epoch: 20 August)

Event Time Altitude Azimuth Distance (km) Brightness Sun altitude
Rises 17:21:33 0° 323° (NW) 3,695 11.7 23.8°
Reaches altitude 10° 17:24:09 10° 324° (NW) 2,741 11.1 23.4°
Maximum altitude 17:30:36 87° 55° (NE) 978 8.4 22.4°
Drops below altitude 10° 17:36:53 10° 145° (SE) 2,675 10.0 21.4°
Sets 17:39:23 0° 145° (SE) 3,601 10.6 21.0°
